Dewpoint
28 21 19 21 23 17 17 20 19 21 23 22 22 22 22 24 25 27 28 28 28 28 27 26 26 27 28 30 30 30 31 32 34 37 43 44 39 39 38 38 39 42 48 52
25 19 20 21 23 23 22 20 20 23 24 22 23 22 23 27 28 28 28 28 28 26 25 25 24 24 25 27 28 29 30 31 32 33 35 39 37 37 34 34 34 35 35 39
23 24 26 23 24 23 23 22 22 22 23 23 26 22 23 28 30 29 29 28 27 26 25 25 23 23 23 24 26 27 28 29 31 31 32 32 33 32 32 32 32 32 33 33
26 27 26 26 24 25 24 26 24 24 23 20 24 18 20 25 28 28 28 27 26 26 26 25 24 22 22 23 23 23 24 24 26 30 29 29 29 28 31 30 29 30 30 29
26 27 26 25 26 27 25 26 25 21 21 21 20 18 19 26 26 27 28 27 26 26 25 24 23 22 22 22 22 22 21 20 20 21 23 23 21 25 23 23 21 22 24 24
28 25 25 26 25 26 26 22 25 26 23 20 21 19 20 23 24 27 28 27 27 26 25 24 24 22 20 20 21 22 20 21 20 18 18 17 18 16 17 19 20 21 22 22
26 26 25 24 22 23 23 23 21 19 19 21 24 21 21 26 27 27 27 27 27 26 25 24 22 20 17 17 19 20 21 21 21 20 19 18 18 17 17 19 20 20 20 20
25 24 25 25 23 22 22 24 23 16 17 19 24 22 23 26 28 28 28 27 26 25 25 25 23 20 17 16 16 18 20 21 21 21 21 21 20 19 19 20 20 21 21 22
25 26 26 24 26 25 23 23 26 24 14 18 23 24 25 26 25 26 27 26 26 27 26 24 24 21 19 17 15 15 16 19 21 21 21 21 20 20 19 19 20 20 20 19
27 25 27 26 26 28 26 30 25 25 15 17 20 21 21 24 25 25 25 25 25 26 27 24 22 22 20 19 18 16 15 15 17 19 21 21 20 20 20 19 19 19 19 20
29 28 27 27 26 26 26 27 26 27 23 16 12 14 22 25 25 24 25 25 24 23 23 25 20 20 20 19 18 17 16 16 17 17 18 19 19 18 18 18 19 19 20 20
32 29 24 26 29 29 28 27 26 23 20 22 21 18 26 26 25 25 25 25 25 24 23 21 19 18 17 16 17 18 19 18 18 18 17 17 17 18 18 18 19 20 20 21
33 28 19 24 24 27 26 27 27 28 24 16 19 19 27 26 25 25 25 25 24 23 21 22 16 17 16 16 16 15 17 19 20 20 18 18 18 18 18 19 19 20 21 21
37 30 28 24 22 25 24 27 26 25 23 22 23 23 24 25 25 25 25 25 25 23 18 22 17 17 16 14 14 13 13 15 19 17 17 17 18 18 18 19 19 20 20 20
32 29 27 26 22 25 23 23 23 21 22 21 20 21 21 25 24 25 26 25 26 25 19 17 22 17 12 11 12 11 12 14 16 17 18 17 17 17 18 19 19 16 14 12
28 25 27 25 25 27 27 28 26 25 24 22 21 20 20 20 18 16 15 15 25 29 26 16 15 14 12 11 13 13 14 18 18 17 16 15 18 18 18 15 12 11 10 10
27 25 21 24 18 16 16 16 21 22 22 21 19 20 18 15 16 16 16 12 11 20 24 19 13 12 13 12 11 13 17 19 17 16 15 16 16 14 12 11 10 9 8 8
28 27 25 17 15 12 17 9 10 14 14 16 18 15 17 18 17 17 16 14 10 6 7 8 10 10 11 13 15 18 18 17 16 15 13 14 12 10 9 8 7 6 6 5
24 22 17 17 6 11 12 8 7 7 4 16 15 17 17 17 9 8 8 9 9 9 11 14 14 12 13 17 18 17 16 15 12 14 15 12 10 8 7 4 4 4 4 3
23 22 24 8 6 5 8 10 11 9 4 11 16 15 15 10 8 8 9 9 11 11 12 13 14 16 17 16 15 15 14 10 10 13 11 9 9 2 2 4 2 3 2 3
12 18 19 13 13 9 12 14 11 1 3 12 13 14 16 11 12 13 12 10 13 14 14 15 18 17 16 14 14 12 11 7 11 9 8 7 6 2 1 1 1 0 -1 1
10 9 8 8 6 5 15 14 10 12 15 16 14 12 15 15 14 13 12 12 14 16 16 19 18 16 13 13 12 10 7 10 7 7 4 2 -4 -3 -0 -9 -4 -5 -5 -5
6 10 9 12 10 14 17 15 16 17 16 17 15 15 17 16 15 14 14 15 16 16 16 19 17 13 11 10 9 7 8 7 4 1 -6 -10 -6 -3 -2 -8 -4 -4 -6 -6
11 10 10 10 10 11 13 15 16 17 15 14 17 15 17 16 15 14 14 15 15 17 17 16 13 11 9 7 8 5 5 5 -4 -4 -7 -5 -6 -5 -6 -2 -1 -4 -5 -5
10 12 11 10 9 10 11 14 15 16 16 16 16 16 16 16 15 15 16 18 18 17 15 13 13 11 8 6 4 2 3 -2 -5 -5 -3 -5 -6 -8 -5 -3 -3 -2 -0 2
12 9 8 7 9 9 8 12 14 14 14 15 16 16 17 18 17 17 17 17 17 16 12 10 8 6 4 2 1 -0 -4 -6 -6 -4 -4 -5 -4 -5 -4 -4 -5 3 8 10
Lifted_Index
6 5 5 5 6 6 5 5 5 5 5 6 6 6 6 6 6 6 6 6 6 7 9 11 12 12 12 12 12 12 11 11 11 10 9 8 6 5 5 6 6 6 5 5
5 5 5 5 5 5 5 5 4 5 5 6 6 6 6 6 6 6 6 6 6 7 9 10 11 12 12 12 12 12 12 11 11 11 10 9 8 7 7 7 7 7 7 7
5 5 5 5 5 5 5 4 4 5 5 6 6 5 5 5 5 5 5 6 6 7 8 10 10 11 11 12 12 12 12 12 12 12 12 11 11 10 9 9 9 10 10 10
5 5 5 4 4 4 4 5 5 5 5 5 5 5 5 5 5 5 5 6 6 7 9 9 10 11 11 12 12 13 13 13 13 13 13 13 13 12 11 11 12 12 13 13
5 5 4 4 4 5 5 5 6 5 5 5 4 4 5 5 5 5 5 5 6 8 9 10 10 11 11 12 12 12 12 13 13 14 14 14 13 13 13 13 13 13 14 14
4 4 4 4 5 5 5 5 5 5 4 4 4 4 5 5 5 5 5 5 6 8 9 10 10 11 10 10 11 11 12 13 13 14 14 14 14 14 13 13 13 13 14 15
4 4 4 5 5 5 5 5 3 3 2 3 3 4 5 5 5 5 5 6 6 8 8 9 9 9 9 9 9 10 11 12 13 14 14 14 14 14 14 14 15 15 16 16
3 3 4 4 4 4 4 3 2 1 1 2 3 4 5 5 5 5 6 6 7 7 8 8 8 8 8 8 9 10 11 12 13 14 14 15 15 15 16 16 16 17 17 18
3 3 3 4 4 3 3 3 2 2 1 2 3 4 5 5 5 6 6 6 6 7 7 7 8 8 8 8 9 11 11 12 13 14 15 15 16 16 17 17 17 18 18 19
3 3 3 3 3 3 2 2 2 2 1 1 2 3 5 6 6 6 6 6 6 6 7 7 7 7 7 8 9 10 11 12 13 14 15 15 16 16 16 17 17 17 18 18
3 3 3 3 3 2 2 2 2 2 2 2 2 3 5 6 6 5 5 5 6 6 7 7 7 7 7 8 9 10 11 12 13 14 15 15 15 15 16 16 16 16 17 17
3 3 3 3 3 3 3 3 3 3 3 3 3 3 5 5 5 5 5 5 6 7 7 7 7 7 7 7 8 10 11 12 13 14 15 15 15 15 15 15 16 16 16 17
3 3 3 3 3 3 3 3 3 3 3 3 3 4 4 5 4 4 4 5 6 7 7 7 7 7 7 7 8 10 11 13 14 14 14 14 14 15 15 15 15 16 16 16
2 3 3 3 3 3 3 3 4 4 3 4 4 4 4 4 4 4 5 6 7 7 7 7 7 6 6 7 9 10 12 13 13 14 14 14 14 14 14 15 15 15 15 16
3 3 3 3 3 3 3 4 4 4 4 4 4 4 4 4 4 5 6 7 7 7 7 7 6 6 6 8 9 11 12 13 13 13 13 13 13 13 13 13 13 14 14 14
3 3 3 3 3 3 3 4 4 4 4 4 4 4 4 4 5 6 7 7 7 7 7 7 6 6 7 9 10 11 12 12 12 12 12 12 11 11 11 11 11 12 12 12
3 3 3 3 3 3 4 5 5 4 4 4 4 5 5 5 6 6 7 7 7 7 8 7 7 8 9 10 11 11 11 11 11 11 10 9 9 9 9 10 10 10 11 11
4 4 3 3 3 3 4 5 5 5 5 5 6 6 6 6 6 6 7 7 8 8 8 9 9 9 10 10 11 11 11 10 10 9 8 8 8 8 9 10 10 10 10 11
4 4 4 3 3 4 5 6 6 5 5 6 6 6 6 6 6 7 7 8 8 8 9 9 10 10 10 10 10 9 9 8 8 7 7 7 7 8 9 10 10 10 10 10
5 5 4 4 3 4 5 6 6 5 5 5 6 6 6 6 7 7 8 8 8 8 9 9 10 10 10 9 9 8 7 7 6 6 6 7 7 8 9 10 10 10 10 10
5 4 4 4 4 4 5 6 5 5 4 5 6 6 6 7 7 8 8 8 8 8 8 9 9 9 8 8 7 6 6 6 6 6 6 7 8 9 9 10 10 10 10 10
4 4 4 4 4 5 5 6 5 5 5 6 6 6 7 7 8 8 8 8 8 8 8 8 8 7 7 6 6 5 5 6 6 6 6 7 8 9 9 9 9 10 10 10
5 5 5 5 5 5 6 6 6 6 6 6 6 6 7 7 8 8 8 8 8 7 7 7 6 6 6 5 5 5 5 6 6 6 7 8 8 9 9 9 9 9 9 9
6 6 6 6 6 6 6 6 6 6 6 6 6 6 7 7 7 7 7 7 7 6 5 5 5 5 5 5 5 5 5 6 6 6 7 8 8 9 9 9 9 9 9 9
6 6 6 6 6 5 5 5 6 6 6 6 6 6 6 6 6 6 6 5 5 4 4 4 4 4 4 5 5 5 5 6 6 6 6 7 8 8 8 8 8 9 9 10
7 7 6 6 5 5 5 5 6 6 6 6 6 5 5 5 5 5 5 4 4 3 3 4 4 4 4 5 5 5 5 6 5 6 6 7 7 7 7 7 8 9 10 11